• In Deutschland
  • Länderverzeichnis
  • Für 7 Tage
  • Wassertemperatur
  • Satellitenkarten
  • Wetterkarte
  • Widgets
  • user-avatar
    Anmelden

    Stündliche Wetter Trebinje

    Heute, 25 Februar, Sonntag

    Zeit Temperatur Niederschläge Wind Luftdruck Luftfeuchtigkeit
    00:00 +1°C° 0 mm 4 m/S 719 mmHg 76%
    01:00 +1°C° 0 mm 4 m/S 720 mmHg 76%
    02:00 +1°C° 0,1 mm 4 m/S 719 mmHg 76%
    03:00 0°C° 0,1 mm 4 m/S 719 mmHg 76%
    04:00 0°C° 0,1 mm 4 m/S 719 mmHg 76%
    05:00 0°C° 0,3 mm 4 m/S 719 mmHg 77%
    06:00 -1°C° 0,3 mm 4 m/S 719 mmHg 78%
    07:00 -1°C° 0,3 mm 4 m/S 719 mmHg 80%
    08:00 -1°C° 0,6 mm 4 m/S 719 mmHg 80%
    09:00 -1°C° 0,6 mm 4 m/S 719 mmHg 81%
    10:00 -1°C° 0,6 mm 4 m/S 719 mmHg 82%
    11:00 -2°C° 1 mm 5 m/S 719 mmHg 84%
    12:00 -2°C° 1 mm 5 m/S 719 mmHg 85%
    13:00 -2°C° 1 mm 5 m/S 719 mmHg 87%
    14:00 -2°C° 0,5 mm 5 m/S 719 mmHg 86%
    15:00 -2°C° 0,5 mm 5 m/S 718 mmHg 85%
    16:00 -2°C° 0,5 mm 5 m/S 718 mmHg 83%
    17:00 -4°C° 0,4 mm 5 m/S 718 mmHg 84%
    18:00 -4°C° 0,4 mm 5 m/S 718 mmHg 84%
    19:00 -5°C° 0,4 mm 5 m/S 718 mmHg 85%
    20:00 -5°C° 0,2 mm 5 m/S 718 mmHg 84%
    21:00 -6°C° 0,2 mm 5 m/S 717 mmHg 83%
    22:00 -6°C° 0,2 mm 5 m/S 717 mmHg 81%
    23:00 -7°C° 0 mm 5 m/S 717 mmHg 81%

    Morgen, 26 Februar, Montag

    Zeit Temperatur Niederschläge Wind Luftdruck Luftfeuchtigkeit
    00:00 -7°C° 0 mm 5 m/S 716 mmHg 80%
    01:00 -7°C° 0 mm 5 m/S 716 mmHg 79%
    02:00 -8°C° 0 mm 5 m/S 716 mmHg 79%
    03:00 -8°C° 0 mm 5 m/S 716 mmHg 79%
    04:00 -8°C° 0 mm 5 m/S 715 mmHg 79%
    05:00 -8°C° 0 mm 4 m/S 715 mmHg 78%
    06:00 -8°C° 0 mm 4 m/S 715 mmHg 78%
    07:00 -8°C° 0 mm 4 m/S 714 mmHg 78%
    08:00 -7°C° 0 mm 4 m/S 714 mmHg 76%
    09:00 -5°C° 0 mm 4 m/S 714 mmHg 75%
    10:00 -2°C° 0 mm 3 m/S 714 mmHg 73%
    11:00 -1°C° 0 mm 3 m/S 714 mmHg 73%
    12:00 0°C° 0 mm 3 m/S 714 mmHg 74%
    13:00 +2°C° 0 mm 2 m/S 714 mmHg 74%
    14:00 +1°C° 0,3 mm 2 m/S 714 mmHg 77%
    15:00 +1°C° 0,3 mm 2 m/S 713 mmHg 81%
    16:00 -1°C° 0,3 mm 2 m/S 713 mmHg 84%
    17:00 -1°C° 0,5 mm 2 m/S 714 mmHg 86%
    18:00 -2°C° 0,5 mm 2 m/S 714 mmHg 89%
    19:00 -2°C° 0,5 mm 2 m/S 714 mmHg 91%
    20:00 -2°C° 0,5 mm 2 m/S 714 mmHg 91%
    21:00 -2°C° 0,5 mm 2 m/S 715 mmHg 91%
    22:00 -3°C° 0,5 mm 2 m/S 715 mmHg 91%
    23:00 -3°C° 0,3 mm 2 m/S 715 mmHg 91%

    übermorgen, 27 Februar, Dienstag

    Zeit Temperatur Niederschläge Wind Luftdruck Luftfeuchtigkeit
    00:00 -3°C° 0,3 mm 2 m/S 715 mmHg 90%
    01:00 -4°C° 0,3 mm 2 m/S 715 mmHg 89%
    02:00 -4°C° 0,1 mm 2 m/S 715 mmHg 89%
    03:00 -4°C° 0,1 mm 2 m/S 715 mmHg 88%
    04:00 -5°C° 0,1 mm 2 m/S 715 mmHg 87%
    05:00 -5°C° 0,1 mm 2 m/S 715 mmHg 87%
    06:00 -5°C° 0,1 mm 2 m/S 715 mmHg 87%
    07:00 -3°C° 0,1 mm 1 m/S 715 mmHg 86%
    08:00 -4°C° 0,2 mm 2 m/S 716 mmHg 84%
    09:00 -3°C° 0,2 mm 2 m/S 716 mmHg 82%
    10:00 -2°C° 0,2 mm 2 m/S 716 mmHg 80%
    11:00 -1°C° 0,1 mm 2 m/S 717 mmHg 78%
    12:00 -1°C° 0,1 mm 2 m/S 717 mmHg 76%
    13:00 0°C° 0,1 mm 3 m/S 717 mmHg 75%
    14:00 -1°C° 0,1 mm 3 m/S 717 mmHg 74%
    15:00 -1°C° 0,1 mm 2 m/S 717 mmHg 74%
    16:00 -1°C° 0,1 mm 2 m/S 718 mmHg 73%
    17:00 -2°C° 0 mm 2 m/S 718 mmHg 75%
    18:00 -4°C° 0 mm 2 m/S 718 mmHg 78%
    19:00 -3°C° 0 mm 1 m/S 719 mmHg 80%
    20:00 -4°C° 0 mm 1 m/S 719 mmHg 81%
    21:00 -4°C° 0 mm 1 m/S 719 mmHg 81%
    22:00 -6°C° 0 mm 2 m/S 720 mmHg 82%
    23:00 -7°C° 0 mm 2 m/S 720 mmHg 82%

    28 Februar, Mittwoch

    Zeit Temperatur Niederschläge Wind Luftdruck Luftfeuchtigkeit
    00:00 -7°C° 0 mm 2 m/S 720 mmHg 82%
    01:00 -7°C° 0 mm 2 m/S 720 mmHg 82%
    02:00 -7°C° 0 mm 2 m/S 720 mmHg 81%
    03:00 -8°C° 0 mm 2 m/S 720 mmHg 80%
    04:00 -9°C° 0 mm 3 m/S 720 mmHg 79%
    05:00 -9°C° 0 mm 3 m/S 720 mmHg 78%
    06:00 -9°C° 0 mm 3 m/S 721 mmHg 77%
    07:00 -9°C° 0 mm 3 m/S 721 mmHg 75%
    08:00 -7°C° 0 mm 3 m/S 721 mmHg 71%
    09:00 -4°C° 0 mm 2 m/S 722 mmHg 66%
    10:00 -2°C° 0 mm 2 m/S 722 mmHg 62%
    11:00 -2°C° 0 mm 3 m/S 722 mmHg 60%
    12:00 -1°C° 0 mm 3 m/S 722 mmHg 58%
    13:00 0°C° 0 mm 3 m/S 722 mmHg 57%
    14:00 -1°C° 0 mm 3 m/S 723 mmHg 59%
    15:00 -1°C° 0 mm 3 m/S 723 mmHg 61%
    16:00 -1°C° 0 mm 3 m/S 723 mmHg 63%
    17:00 -4°C° 0 mm 3 m/S 724 mmHg 66%
    18:00 -5°C° 0 mm 3 m/S 724 mmHg 68%
    19:00 -6°C° 0 mm 2 m/S 725 mmHg 71%
    20:00 -6°C° 0 mm 2 m/S 725 mmHg 72%
    21:00 -7°C° 0 mm 2 m/S 726 mmHg 73%
    22:00 -7°C° 0 mm 2 m/S 726 mmHg 75%
    23:00 -7°C° 0 mm 2 m/S 726 mmHg 74%

    1 März, Donnerstag

    Zeit Temperatur Niederschläge Wind Luftdruck Luftfeuchtigkeit
    00:00 -7°C° 0 mm 2 m/S 726 mmHg 73%
    01:00 -7°C° 0 mm 2 m/S 726 mmHg 72%
    02:00 -7°C° 0 mm 2 m/S 726 mmHg 71%
    03:00 -7°C° 0 mm 2 m/S 726 mmHg 70%
    04:00 -6°C° 0 mm 2 m/S 726 mmHg 69%
    05:00 -6°C° 0 mm 2 m/S 726 mmHg 69%
    06:00 -6°C° 0 mm 3 m/S 726 mmHg 70%
    07:00 -6°C° 0 mm 3 m/S 725 mmHg 70%
    08:00 -4°C° 0 mm 3 m/S 725 mmHg 70%
    09:00 -1°C° 0 mm 3 m/S 725 mmHg 69%
    10:00 -1°C° 0 mm 4 m/S 724 mmHg 69%
    11:00 0°C° 0,2 mm 4 m/S 724 mmHg 73%
    12:00 0°C° 0,2 mm 4 m/S 723 mmHg 77%
    13:00 +1°C° 0,2 mm 5 m/S 723 mmHg 82%
    14:00 +1°C° 0,4 mm 5 m/S 722 mmHg 84%
    15:00 +1°C° 0,4 mm 5 m/S 722 mmHg 87%
    16:00 +1°C° 0,4 mm 5 m/S 721 mmHg 89%
    17:00 +1°C° 0,8 mm 5 m/S 721 mmHg 90%
    18:00 +1°C° 0,8 mm 5 m/S 720 mmHg 91%
    19:00 +1°C° 0,8 mm 6 m/S 720 mmHg 92%
    20:00 +2°C° 0,8 mm 6 m/S 720 mmHg 93%
    21:00 +2°C° 0,8 mm 6 m/S 719 mmHg 94%
    22:00 +2°C° 0,8 mm 6 m/S 719 mmHg 95%
    23:00 +3°C° 1,6 mm 7 m/S 718 mmHg 96%

    2 März, Freitag

    Zeit Temperatur Niederschläge Wind Luftdruck Luftfeuchtigkeit
    00:00 +3°C° 1,6 mm 7 m/S 718 mmHg 97%
    01:00 +4°C° 1,6 mm 8 m/S 717 mmHg 98%
    02:00 +4°C° 2,4 mm 8 m/S 717 mmHg 98%
    03:00 +4°C° 2,4 mm 8 m/S 716 mmHg 98%
    04:00 +5°C° 2,4 mm 8 m/S 716 mmHg 98%
    05:00 +5°C° 2,8 mm 8 m/S 715 mmHg 98%
    06:00 +5°C° 2,8 mm 8 m/S 715 mmHg 98%
    07:00 +5°C° 2,8 mm 8 m/S 715 mmHg 98%
    08:00 +5°C° 2,6 mm 8 m/S 715 mmHg 98%
    09:00 +5°C° 2,6 mm 8 m/S 715 mmHg 98%
    10:00 +6°C° 2,6 mm 8 m/S 715 mmHg 98%
    11:00 +6°C° 1,8 mm 8 m/S 715 mmHg 98%
    12:00 +6°C° 1,8 mm 8 m/S 714 mmHg 98%
    13:00 +6°C° 1,8 mm 8 m/S 714 mmHg 97%
    14:00 +6°C° 2,4 mm 8 m/S 714 mmHg 98%
    15:00 +7°C° 2,4 mm 8 m/S 714 mmHg 98%
    16:00 +8°C° 2,4 mm 7 m/S 714 mmHg 98%
    17:00 +8°C° 3,5 mm 7 m/S 714 mmHg 98%
    18:00 +8°C° 3,5 mm 7 m/S 714 mmHg 98%
    19:00 +8°C° 3,5 mm 7 m/S 714 mmHg 98%
    20:00 +8°C° 3,1 mm 6 m/S 714 mmHg 98%
    21:00 +8°C° 3,1 mm 6 m/S 714 mmHg 97%
    22:00 +8°C° 3,1 mm 5 m/S 714 mmHg 97%
    23:00 +8°C° 0,9 mm 4 m/S 714 mmHg 97%
    Mehr zeigen